#Datum;Uhrzeit;WR;Pac;DaySum;Status;WR;Pac;DaySum;Status;Pdc1;Udc;Temp;WR;Pac;DaySum;Status;Pdc1;Udc;Temp;WR;Pac;DaySum;Status;Pdc1;Udc;Temp;WR;Pac;DaySum;Status;Pdc1;Pdc2;Udc1;Udc2;Temp;WR;Pac;DaySum;Status;Pdc1;Pdc2;Udc1;Udc2;Temp;WR;Pac;DaySum;Status;Pdc1;Udc;Temp;WR;Pac;DaySum;Status;Pdc1;Udc;Temp;WR;Pac;DaySum;Status;Pdc1;Udc;Temp
01.11.17;23:55:00;1;386;8824;0;2;0;4421;0;0;0;0;3;0;2749;0;0;0;0;4;0;3771;0;0;0;0;5;0;0;0;0;0;0;0;0;6;0;6971;0;0;0;0;0;0;7;0;4801;0;0;0;0;8;0;4839;0;0;0;0;9;0;2586;0;0;0;0
01.11.17;23:50:00;1;378;8792;0;2;0;4421;0;0;0;0;3;0;2749;0;0;0;0;4;0;3771;0;0;0;0;5;0;0;0;0;0;0;0;0;6;0;6971;0;0;0;0;0;0;7;0;4801;0;0;0;0;8;0;4839;0;0;0;0;9;0;2586;0;0;0;0
01.11.17;23:45:00;1;388;8760;0;2;0;4421;0;0;0;0;3;0;2749;0;0;0;0;4;0;3771;0;0;0;0;5;0;0;0;0;0;0;0;0;6;0;6971;0;0;0;0;0;0;7;0;4801;0;0;0;0;8;0;4839;0;0;0;0;9;0;2586;0;0;0;0
01.11.17;23:40:00;1;423;8728;0;2;0;4421;0;0;0;0;3;0;2749;0;0;0;0;4;0;3771;0;0;0;0;5;0;0;0;0;0;0;0;0;6;0;6971;0;0;0;0;0;0;7;0;4801;0;0;0;0;8;0;4839;0;0;0;0;9;0;2586;0;0;0;0
01.11.17;23:35:00;1;432;8692;0;2;0;4421;0;0;0;0;3;0;2749;0;0;0;0;4;0;3771;0;0;0;0;5;0;0;0;0;0;0;0;0;6;0;6971;0;0;0;0;0;0;7;0;4801;0;0;0;0;8;0;4839;0;0;0;0;9;0;2586;0;0;0;0
01.11.17;23:30:00;1;430;8656;0;2;0;4421;0;0;0;0;3;0;2749;0;0;0;0;4;0;3771;0;0;0;0;5;0;0;0;0;0;0;0;0;6;0;6971;0;0;0;0;0;0;7;0;4801;0;0;0;0;8;0;4839;0;0;0;0;9;0;2586;0;0;0;0
01.11.17;23:25:00;1;397;8619;0;2;0;4421;0;0;0;0;3;0;2749;0;0;0;0;4;0;3771;0;0;0;0;5;0;0;0;0;0;0;0;0;6;0;6971;0;0;0;0;0;0;7;0;4801;0;0;0;0;8;0;4839;0;0;0;0;9;0;2586;0;0;0;0
01.11.17;23:20:00;1;317;8587;0;2;0;4421;0;0;0;0;3;0;2749;0;0;0;0;4;0;3771;0;0;0;0;5;0;0;0;0;0;0;0;0;6;0;6971;0;0;0;0;0;0;7;0;4801;0;0;0;0;8;0;4839;0;0;0;0;9;0;2586;0;0;0;0
01.11.17;23:15:00;1;319;8561;0;2;0;4421;0;0;0;0;3;0;2749;0;0;0;0;4;0;3771;0;0;0;0;5;0;0;0;0;0;0;0;0;6;0;6971;0;0;0;0;0;0;7;0;4801;0;0;0;0;8;0;4839;0;0;0;0;9;0;2586;0;0;0;0
01.11.17;23:10:00;1;318;8534;0;2;0;4421;0;0;0;0;3;0;2749;0;0;0;0;4;0;3771;0;0;0;0;5;0;0;0;0;0;0;0;0;6;0;6971;0;0;0;0;0;0;7;0;4801;0;0;0;0;8;0;4839;0;0;0;0;9;0;2586;0;0;0;0
01.11.17;23:05:00;1;310;8508;0;2;0;4421;0;0;0;0;3;0;2749;0;0;0;0;4;0;3771;0;0;0;0;5;0;0;0;0;0;0;0;0;6;0;6971;0;0;0;0;0;0;7;0;4801;0;0;0;0;8;0;4839;0;0;0;0;9;0;2586;0;0;0;0
01.11.17;23:00:00;1;310;8481;0;2;0;4421;0;0;0;0;3;0;2749;0;0;0;0;4;0;3771;0;0;0;0;5;0;0;0;0;0;0;0;0;6;0;6971;0;0;0;0;0;0;7;0;4801;0;0;0;0;8;0;4839;0;0;0;0;9;0;2586;0;0;0;0
01.11.17;22:55:00;1;316;8455;0;2;0;4421;0;0;0;0;3;0;2749;0;0;0;0;4;0;3771;0;0;0;0;5;0;0;2;0;0;0;0;0;6;0;6971;2;0;0;0;0;0;7;0;4801;0;0;0;0;8;0;4839;0;0;0;0;9;0;2586;0;0;0;0
01.11.17;22:50:00;1;325;8429;0;2;0;4421;0;0;0;0;3;0;2749;0;0;0;0;4;0;3771;0;0;0;0;5;0;0;2;0;0;0;0;0;6;0;6971;2;0;0;0;0;0;7;0;4801;0;0;0;0;8;0;4839;0;0;0;0;9;0;2586;0;0;0;0
01.11.17;22:45:00;1;354;8401;0;2;0;4421;0;0;0;0;3;0;2749;0;0;0;0;4;0;3771;0;0;0;0;5;0;0;2;0;0;0;0;0;6;0;6971;2;0;0;0;0;0;7;0;4801;0;0;0;0;8;0;4839;0;0;0;0;9;0;2586;0;0;0;0
01.11.17;22:40:00;1;362;8372;0;2;0;4421;0;0;0;0;3;0;2749;0;0;0;0;4;0;3771;0;0;0;0;5;0;0;2;0;0;0;0;0;6;0;6971;2;0;0;0;0;0;7;0;4801;0;0;0;0;8;0;4839;0;0;0;0;9;0;2586;0;0;0;0
01.11.17;22:35:00;1;357;8342;0;2;0;4421;0;0;0;0;3;0;2749;0;0;0;0;4;0;3771;0;0;0;0;5;0;0;2;0;0;0;0;0;6;0;6971;2;0;0;0;0;0;7;0;4801;0;0;0;0;8;0;4839;0;0;0;0;9;0;2586;0;0;0;0
01.11.17;22:30:00;1;302;8312;0;2;0;4421;0;0;0;0;3;0;2749;0;0;0;0;4;0;3771;0;0;0;0;5;0;0;2;0;0;0;0;0;6;0;6971;2;0;0;0;0;0;7;0;4801;0;0;0;0;8;0;4839;0;0;0;0;9;0;2586;0;0;0;0
01.11.17;22:25:00;1;326;8287;0;2;0;4421;0;0;0;0;3;0;2749;0;0;0;0;4;0;3771;0;0;0;0;5;0;0;2;0;0;0;0;0;6;0;6971;2;0;0;0;0;0;7;0;4801;0;0;0;0;8;0;4839;0;0;0;0;9;0;2586;0;0;0;0
01.11.17;22:20:00;1;365;8260;0;2;0;4421;0;0;0;0;3;0;2749;0;0;0;0;4;0;3771;0;0;0;0;5;0;0;2;0;0;0;0;0;6;0;6971;2;0;0;0;0;0;7;0;4801;0;0;0;0;8;0;4839;0;0;0;0;9;0;2586;0;0;0;0
01.11.17;22:15:00;1;382;8229;0;2;0;4421;0;0;0;0;3;0;2749;0;0;0;0;4;0;3771;0;0;0;0;5;0;0;2;0;0;0;0;0;6;0;6971;2;0;0;0;0;0;7;0;4801;0;0;0;0;8;0;4839;0;0;0;0;9;0;2586;0;0;0;0
01.11.17;22:10:00;1;391;8197;0;2;0;4421;0;0;0;0;3;0;2749;0;0;0;0;4;0;3771;0;0;0;0;5;0;0;2;0;0;0;0;0;6;0;6971;2;0;0;0;0;0;7;0;4801;0;0;0;0;8;0;4839;0;0;0;0;9;0;2586;0;0;0;0
01.11.17;22:05:00;1;402;8164;0;2;0;4421;0;0;0;0;3;0;2749;0;0;0;0;4;0;3771;0;0;0;0;5;0;0;2;0;0;0;0;0;6;0;6971;2;0;0;0;0;0;7;0;4801;0;0;0;0;8;0;4839;0;0;0;0;9;0;2586;0;0;0;0
01.11.17;22:00:00;1;401;8130;0;2;0;4421;0;0;0;0;3;0;2749;0;0;0;0;4;0;3771;0;0;0;0;5;0;0;2;0;0;0;0;0;6;0;6971;2;0;0;0;0;0;7;0;4801;0;0;0;0;8;0;4839;0;0;0;0;9;0;2586;0;0;0;0
01.11.17;21:55:00;1;427;8097;0;2;0;4421;0;0;0;0;3;0;2749;0;0;0;0;4;0;3771;0;0;0;0;5;0;0;2;0;0;0;0;0;6;0;6971;2;0;0;0;0;0;7;0;4801;0;0;0;0;8;0;4839;0;0;0;0;9;0;2586;0;0;0;0
01.11.17;21:50:00;1;440;8061;0;2;0;4421;0;0;0;0;3;0;2749;0;0;0;0;4;0;3771;0;0;0;0;5;0;0;2;0;0;0;0;0;6;0;6971;2;0;0;0;0;0;7;0;4801;0;0;0;0;8;0;4839;0;0;0;0;9;0;2586;0;0;0;0
01.11.17;21:45:00;1;443;8025;0;2;0;4421;0;0;0;0;3;0;2749;0;0;0;0;4;0;3771;0;0;0;0;5;0;0;2;0;0;0;0;0;6;0;6971;2;0;0;0;0;0;7;0;4801;0;0;0;0;8;0;4839;0;0;0;0;9;0;2586;0;0;0;0
01.11.17;21:40:00;1;348;7988;0;2;0;4421;0;0;0;0;3;0;2749;0;0;0;0;4;0;3771;0;0;0;0;5;0;0;2;0;0;0;0;0;6;0;6971;2;0;0;0;0;0;7;0;4801;0;0;0;0;8;0;4839;0;0;0;0;9;0;2586;0;0;0;0
01.11.17;21:35:00;1;354;7959;0;2;0;4421;0;0;0;0;3;0;2749;0;0;0;0;4;0;3771;0;0;0;0;5;0;0;2;0;0;0;0;0;6;0;6971;2;0;0;0;0;0;7;0;4801;0;0;0;0;8;0;4839;0;0;0;0;9;0;2586;0;0;0;0
01.11.17;21:30:00;1;335;7929;0;2;0;4421;0;0;0;0;3;0;2749;0;0;0;0;4;0;3771;0;0;0;0;5;0;0;2;0;0;0;0;0;6;0;6971;2;0;0;0;0;0;7;0;4801;0;0;0;0;8;0;4839;0;0;0;0;9;0;2586;0;0;0;0
01.11.17;21:25:00;1;335;7901;0;2;0;4421;0;0;0;0;3;0;2749;0;0;0;0;4;0;3771;0;0;0;0;5;0;0;2;0;0;0;0;0;6;0;6971;2;0;0;0;0;0;7;0;4801;0;0;0;0;8;0;4839;0;0;0;0;9;0;2586;0;0;0;0
01.11.17;21:20:00;1;338;7873;0;2;0;4421;0;0;0;0;3;0;2749;0;0;0;0;4;0;3771;0;0;0;0;5;0;0;2;0;0;0;0;0;6;0;6971;2;0;0;0;0;0;7;0;4801;0;0;0;0;8;0;4839;0;0;0;0;9;0;2586;0;0;0;0
01.11.17;21:15:00;1;381;7845;0;2;0;4421;0;0;0;0;3;0;2749;0;0;0;0;4;0;3771;0;0;0;0;5;0;0;2;0;0;0;0;0;6;0;6971;2;0;0;0;0;0;7;0;4801;0;0;0;0;8;0;4839;0;0;0;0;9;0;2586;0;0;0;0
01.11.17;21:10:00;1;327;7813;0;2;0;4421;0;0;0;0;3;0;2749;0;0;0;0;4;0;3771;0;0;0;0;5;0;0;2;0;0;0;0;0;6;0;6971;2;0;0;0;0;0;7;0;4801;0;0;0;0;8;0;4839;0;0;0;0;9;0;2586;0;0;0;0
01.11.17;21:05:00;1;358;7786;0;2;0;4421;0;0;0;0;3;0;2749;0;0;0;0;4;0;3771;0;0;0;0;5;0;0;2;0;0;0;0;0;6;0;6971;2;0;0;0;0;0;7;0;4801;0;0;0;0;8;0;4839;0;0;0;0;9;0;2586;0;0;0;0
01.11.17;21:00:00;1;378;7757;0;2;0;4421;0;0;0;0;3;0;2749;0;0;0;0;4;0;3771;0;0;0;0;5;0;0;2;0;0;0;0;0;6;0;6971;2;0;0;0;0;0;7;0;4801;0;0;0;0;8;0;4839;0;0;0;0;9;0;2586;0;0;0;0
01.11.17;20:55:00;1;370;7725;0;2;0;4421;0;0;0;0;3;0;2749;0;0;0;0;4;0;3771;0;0;0;0;5;0;0;2;0;0;0;0;0;6;0;6971;2;0;0;0;0;0;7;0;4801;0;0;0;0;8;0;4839;0;0;0;0;9;0;2586;0;0;0;0
01.11.17;20:50:00;1;359;7693;0;2;0;4421;0;0;0;0;3;0;2749;0;0;0;0;4;0;3771;0;0;0;0;5;0;0;2;0;0;0;0;0;6;0;6971;2;0;0;0;0;0;7;0;4801;0;0;0;0;8;0;4839;0;0;0;0;9;0;2586;0;0;0;0
01.11.17;20:45:00;1;377;7663;0;2;0;4421;0;0;0;0;3;0;2749;0;0;0;0;4;0;3771;0;0;0;0;5;0;0;2;0;0;0;0;0;6;0;6971;2;0;0;0;0;0;7;0;4801;0;0;0;0;8;0;4839;0;0;0;0;9;0;2586;0;0;0;0
01.11.17;20:40:00;1;437;7630;0;2;0;4421;0;0;0;0;3;0;2749;0;0;0;0;4;0;3771;0;0;0;0;5;0;0;2;0;0;0;0;0;6;0;6971;2;0;0;0;0;0;7;0;4801;0;0;0;0;8;0;4839;0;0;0;0;9;0;2586;0;0;0;0
01.11.17;20:35:00;1;464;7593;0;2;0;4421;0;0;0;0;3;0;2749;0;0;0;0;4;0;3771;0;0;0;0;5;0;0;2;0;0;0;0;0;6;0;6971;2;0;0;0;0;0;7;0;4801;0;0;0;0;8;0;4839;0;0;0;0;9;0;2586;0;0;0;0
01.11.17;20:30:00;1;515;7554;0;2;0;4421;0;0;0;0;3;0;2749;0;0;0;0;4;0;3771;0;0;0;0;5;0;0;2;0;0;0;0;0;6;0;6971;2;0;0;0;0;0;7;0;4801;0;0;0;0;8;0;4839;0;0;0;0;9;0;2586;0;0;0;0
01.11.17;20:25:00;1;572;7510;0;2;0;4421;0;0;0;0;3;0;2749;0;0;0;0;4;0;3771;0;0;0;0;5;0;0;2;0;0;0;0;0;6;0;6971;2;0;0;0;0;0;7;0;4801;0;0;0;0;8;0;4839;0;0;0;0;9;0;2586;0;0;0;0
01.11.17;20:20:00;1;653;7461;0;2;0;4421;0;0;0;0;3;0;2749;0;0;0;0;4;0;3771;0;0;0;0;5;0;0;2;0;0;0;0;0;6;0;6971;2;0;0;0;0;0;7;0;4801;0;0;0;0;8;0;4839;0;0;0;0;9;0;2586;0;0;0;0
01.11.17;20:15:00;1;684;7406;0;2;0;4421;0;0;0;0;3;0;2749;0;0;0;0;4;0;3771;0;0;0;0;5;0;0;2;0;0;0;0;0;6;0;6971;2;0;0;0;0;0;7;0;4801;0;0;0;0;8;0;4839;0;0;0;0;9;0;2586;0;0;0;0
01.11.17;20:10:00;1;678;7348;0;2;0;4421;0;0;0;0;3;0;2749;0;0;0;0;4;0;3771;0;0;0;0;5;0;0;2;0;0;0;0;0;6;0;6971;2;0;0;0;0;0;7;0;4801;0;0;0;0;8;0;4839;0;0;0;0;9;0;2586;0;0;0;0
01.11.17;20:05:00;1;676;7291;0;2;0;4421;0;0;0;0;3;0;2749;0;0;0;0;4;0;3771;0;0;0;0;5;0;0;2;0;0;0;0;0;6;0;6971;2;0;0;0;0;0;7;0;4801;0;0;0;0;8;0;4839;0;0;0;0;9;0;2586;0;0;0;0
01.11.17;20:00:00;1;669;7235;0;2;0;4421;0;0;0;0;3;0;2749;0;0;0;0;4;0;3771;0;0;0;0;5;0;0;2;0;0;0;0;0;6;0;6971;2;0;0;0;0;0;7;0;4801;0;0;0;0;8;0;4839;0;0;0;0;9;0;2586;0;0;0;0
01.11.17;19:55:00;1;606;7179;0;2;0;4421;0;0;0;0;3;0;2749;0;0;0;0;4;0;3771;0;0;0;0;5;0;0;2;0;0;0;0;0;6;0;6971;2;0;0;0;0;0;7;0;4801;0;0;0;0;8;0;4839;0;0;0;0;9;0;2586;0;0;0;0
01.11.17;19:50:00;1;1494;7104;0;2;0;4421;0;0;0;0;3;0;2749;0;0;0;0;4;0;3771;0;0;0;0;5;0;0;2;0;0;0;0;0;6;0;6971;2;0;0;0;0;0;7;0;4801;0;0;0;0;8;0;4839;0;0;0;0;9;0;2586;0;0;0;0
01.11.17;19:45:00;1;1847;6950;0;2;0;4421;0;0;0;0;3;0;2749;0;0;0;0;4;0;3771;0;0;0;0;5;0;0;2;0;0;0;0;0;6;0;6971;2;0;0;0;0;0;7;0;4801;0;0;0;0;8;0;4839;0;0;0;0;9;0;2586;0;0;0;0
01.11.17;19:40:00;1;2599;6773;0;2;0;4421;0;0;0;0;3;0;2749;0;0;0;0;4;0;3771;0;0;0;0;5;0;0;2;0;0;0;0;0;6;0;6971;2;0;0;0;0;0;7;0;4801;0;0;0;0;8;0;4839;0;0;0;0;9;0;2586;0;0;0;0
01.11.17;19:35:00;1;2602;6554;0;2;0;4421;0;0;0;0;3;0;2749;0;0;0;0;4;0;3771;0;0;0;0;5;0;0;2;0;0;0;0;0;6;0;6971;2;0;0;0;0;0;7;0;4801;0;0;0;0;8;0;4839;0;0;0;0;9;0;2586;0;0;0;0
01.11.17;19:30:00;1;527;6364;0;2;0;4421;0;0;0;0;3;0;2749;0;0;0;0;4;0;3771;0;0;0;0;5;0;0;2;0;0;0;0;0;6;0;6971;2;0;0;0;0;0;7;0;4801;0;0;0;0;8;0;4839;0;0;0;0;9;0;2586;0;0;0;0
01.11.17;19:25:00;1;575;6320;0;2;0;4421;0;0;0;0;3;0;2749;0;0;0;0;4;0;3771;0;0;0;0;5;0;0;2;0;0;0;0;0;6;0;6971;2;0;0;0;0;0;7;0;4801;0;0;0;0;8;0;4839;0;0;0;0;9;0;2586;0;0;0;0
01.11.17;19:20:00;1;676;6271;0;2;0;4421;0;0;0;0;3;0;2749;0;0;0;0;4;0;3771;0;0;0;0;5;0;0;2;0;0;0;0;0;6;0;6971;2;0;0;0;0;0;7;0;4801;0;0;0;0;8;0;4839;0;0;0;0;9;0;2586;0;0;0;0
01.11.17;19:15:00;1;708;6215;0;2;0;4421;0;0;0;0;3;0;2749;0;0;0;0;4;0;3771;0;0;0;0;5;0;0;2;0;0;0;0;0;6;0;6971;2;0;0;0;0;0;7;0;4801;0;0;0;0;8;0;4839;0;0;0;0;9;0;2586;0;0;0;0
01.11.17;19:10:00;1;719;6155;0;2;0;4421;0;0;0;0;3;0;2749;0;0;0;0;4;0;3771;0;0;0;0;5;0;0;2;0;0;0;0;0;6;0;6971;2;0;0;0;0;0;7;0;4801;0;0;0;0;8;0;4839;0;0;0;0;9;0;2586;0;0;0;0
01.11.17;19:05:00;1;790;6095;0;2;0;4421;0;0;0;0;3;0;2749;0;0;0;0;4;0;3771;0;0;0;0;5;0;0;2;0;0;0;0;0;6;0;6971;2;0;0;0;0;0;7;0;4801;0;0;0;0;8;0;4839;0;0;0;0;9;0;2586;0;0;0;0
01.11.17;19:00:00;1;1568;6029;0;2;0;4421;0;0;0;0;3;0;2749;0;0;0;0;4;0;3771;0;0;0;0;5;0;0;2;0;0;0;0;0;6;0;6971;2;0;0;0;0;0;7;0;4801;0;0;0;0;8;0;4839;0;0;0;0;9;0;2586;0;0;0;0
01.11.17;18:55:00;1;752;5919;0;2;0;4421;0;0;0;0;3;0;2749;0;0;0;0;4;0;3771;0;0;0;0;5;0;0;2;0;0;0;0;0;6;0;6971;2;0;0;0;0;0;7;0;4801;0;0;0;0;8;0;4839;0;0;0;0;9;0;2586;0;0;0;0
01.11.17;18:50:00;1;746;5856;0;2;0;4421;0;0;0;0;3;0;2749;0;0;0;0;4;0;3771;0;0;0;0;5;0;0;2;0;0;0;0;0;6;0;6971;2;0;0;0;0;0;7;0;4801;0;0;0;0;8;0;4839;0;0;0;0;9;0;2586;0;0;0;0
01.11.17;18:45:00;1;812;5794;0;2;0;4421;0;0;0;0;3;0;2749;0;0;0;0;4;0;3771;0;0;0;0;5;0;0;2;0;0;0;0;0;6;0;6971;2;0;0;0;0;0;7;0;4801;0;0;0;0;8;0;4839;0;0;0;0;9;0;2586;0;0;0;0
01.11.17;18:40:00;1;803;5726;0;2;0;4421;0;0;0;0;3;0;2749;0;0;0;0;4;0;3771;0;0;0;0;5;0;0;2;0;0;0;0;0;6;0;6971;2;0;0;0;0;0;7;0;4801;0;0;0;0;8;0;4839;0;0;0;0;9;0;2586;0;0;0;0
01.11.17;18:35:00;1;744;5656;0;2;0;4421;0;0;0;0;3;0;2749;0;0;0;0;4;0;3771;0;0;0;0;5;0;0;2;0;0;0;0;0;6;0;6971;2;0;0;0;0;0;7;0;4801;0;0;0;0;8;0;4839;0;0;0;0;9;0;2586;0;0;0;0
01.11.17;18:30:00;1;642;5597;0;2;0;4421;0;0;0;0;3;0;2749;0;0;0;0;4;0;3771;0;0;0;0;5;0;0;2;0;0;0;0;0;6;0;6971;2;0;0;0;0;0;7;0;4801;0;0;0;0;8;0;4839;0;0;0;0;9;0;2586;0;0;0;0
01.11.17;18:25:00;1;615;5543;0;2;0;4421;0;0;0;0;3;0;2749;0;0;0;0;4;0;3771;0;0;0;0;5;0;0;2;0;0;0;0;0;6;0;6971;2;0;0;0;0;0;7;0;4801;0;0;0;0;8;0;4839;0;0;0;0;9;0;2586;0;0;0;0
01.11.17;18:20:00;1;721;5491;0;2;0;4421;0;0;0;0;3;0;2749;0;0;0;0;4;0;3771;0;0;0;0;5;0;0;2;0;0;0;0;0;6;0;6971;2;0;0;0;0;0;7;0;4801;0;0;0;0;8;0;4839;0;0;0;0;9;0;2586;0;0;0;0
01.11.17;18:15:00;1;682;5431;0;2;0;4421;0;0;0;0;3;0;2749;0;0;0;0;4;0;3771;0;0;0;0;5;0;0;2;0;0;0;0;0;6;0;6971;2;0;0;0;0;0;7;0;4801;0;0;0;0;8;0;4839;0;0;0;0;9;0;2586;0;0;0;0
01.11.17;18:10:00;1;592;5374;0;2;0;4421;0;0;0;0;3;0;2749;0;0;0;0;4;0;3771;0;0;0;0;5;0;0;2;0;0;0;0;0;6;0;6971;2;0;0;0;0;0;7;0;4801;0;0;0;0;8;0;4839;0;0;0;0;9;0;2586;0;0;0;0
01.11.17;18:05:00;1;462;5324;0;2;0;4421;0;0;0;0;3;0;2749;0;0;0;0;4;0;3771;0;0;0;0;5;0;0;2;0;0;0;0;0;6;0;6971;2;0;0;0;0;0;7;0;4801;0;0;0;0;8;0;4839;0;0;0;0;9;0;2586;0;0;0;0
01.11.17;18:00:00;1;474;5286;0;2;0;4421;0;0;0;0;3;0;2749;0;0;0;0;4;0;3771;0;0;0;0;5;0;0;2;0;0;0;0;0;6;0;6971;2;0;0;0;0;0;7;0;4801;0;0;0;0;8;0;4839;0;0;0;0;9;0;2586;0;0;0;0
01.11.17;17:55:00;1;452;5247;0;2;0;4421;0;0;0;0;3;0;2749;0;0;0;0;4;0;3771;0;0;0;0;5;0;0;2;0;0;0;0;0;6;0;6971;2;0;0;0;0;0;7;0;4801;0;0;0;0;8;0;4839;0;0;0;0;9;0;2586;0;0;0;0
01.11.17;17:50:00;1;500;5209;0;2;0;4421;0;0;0;0;3;0;2749;0;0;0;0;4;0;3771;0;0;0;0;5;0;0;2;0;0;0;0;0;6;0;6971;2;0;0;0;0;0;7;0;4801;0;0;0;0;8;0;4839;0;0;0;0;9;0;2586;0;0;0;0
01.11.17;17:45:00;1;630;5166;0;2;0;4421;0;0;0;0;3;0;2749;0;0;0;0;4;0;3771;0;0;0;0;5;0;0;2;0;0;0;0;0;6;0;6971;2;0;0;0;0;0;7;0;4801;0;0;0;0;8;0;4839;0;0;0;0;9;0;2586;0;0;0;0
01.11.17;17:40:00;1;451;5114;0;2;0;4421;0;0;0;0;3;0;2749;0;0;0;0;4;0;3771;0;0;0;0;5;0;0;2;0;0;0;0;0;6;0;6971;2;0;0;0;0;0;7;0;4801;0;0;0;0;8;0;4839;0;0;0;0;9;0;2586;0;0;0;0
01.11.17;17:35:00;1;450;5076;0;2;0;4421;0;0;0;0;3;0;2749;0;0;0;0;4;0;3771;0;0;0;0;5;0;0;2;0;0;0;0;0;6;0;6971;2;0;0;0;0;0;7;0;4801;0;0;0;0;8;0;4839;0;0;0;0;9;0;2586;0;0;0;0
01.11.17;17:30:00;1;476;5039;0;2;0;4421;0;0;0;0;3;0;2749;0;0;0;0;4;0;3771;0;0;0;0;5;0;0;2;0;0;0;0;0;6;0;6971;2;0;0;0;0;0;7;0;4801;0;0;0;0;8;0;4839;0;0;0;0;9;0;2586;0;0;0;0
01.11.17;17:25:00;1;542;4998;0;2;0;4421;0;0;0;0;3;0;2749;0;0;0;0;4;0;3771;0;0;0;0;5;0;0;2;0;0;0;0;0;6;0;6971;2;0;0;0;0;0;7;0;4801;0;0;0;0;8;0;4839;0;0;0;0;9;0;2586;0;0;0;0
01.11.17;17:20:00;1;566;4954;0;2;0;4421;0;0;0;0;3;0;2749;0;0;0;0;4;0;3771;0;0;0;0;5;0;0;2;0;0;0;0;0;6;0;6971;2;0;0;0;0;0;7;0;4801;0;0;0;0;8;0;4839;0;0;0;0;9;0;2586;0;0;0;0
01.11.17;17:15:00;1;546;4906;0;2;0;4421;0;0;0;0;3;0;2749;0;0;0;0;4;0;3771;0;0;0;0;5;0;0;2;0;0;0;0;0;6;0;6971;2;0;0;0;0;0;7;0;4801;0;0;0;0;8;0;4839;0;0;0;0;9;0;2586;0;0;0;0
01.11.17;17:10:00;1;542;4860;0;2;0;4421;0;0;0;0;3;0;2749;0;0;0;0;4;0;3771;0;0;0;0;5;0;0;2;0;0;0;0;0;6;0;6971;2;0;0;0;0;0;7;0;4801;0;0;0;0;8;0;4839;0;0;0;0;9;0;2586;0;0;0;0
01.11.17;17:05:00;1;514;4814;0;2;0;4421;0;0;0;0;3;0;2749;0;0;131;8;4;0;3771;0;0;0;0;5;0;0;2;0;0;0;0;0;6;0;6971;2;0;0;0;0;0;7;0;4801;0;0;0;0;8;0;4839;0;0;0;0;9;0;2586;0;0;0;0
01.11.17;17:00:00;1;332;4772;0;2;0;4421;6;0;277;13;3;0;2749;6;0;311;16;4;0;3771;0;0;51;10;5;0;0;2;0;0;0;0;0;6;0;6971;2;0;0;0;0;0;7;0;4801;0;0;0;0;8;0;4839;0;0;0;0;9;0;2586;0;0;0;0
01.11.17;16:55:00;1;315;4744;0;2;0;4421;6;0;313;14;3;0;2749;6;0;376;16;4;0;3771;1;0;100;14;5;0;0;2;0;0;0;0;0;6;0;6971;1;3;0;59;114;10;7;0;4801;0;0;0;0;8;0;4839;0;0;0;0;9;0;2586;0;0;41;2
01.11.17;16:50:00;1;234;4719;0;2;0;4421;6;0;350;14;3;0;2749;4;0;414;17;4;0;3771;1;0;145;14;5;0;0;2;0;0;0;0;0;6;0;6971;23;8;0;180;494;24;7;0;4801;11;0;241;17;8;0;4839;2;0;286;17;9;0;2586;6;0;303;13
01.11.17;16:45:00;1;233;4700;0;2;0;4421;6;0;376;14;3;0;2749;3;4;430;17;4;0;3771;1;0;187;14;5;0;0;2;0;0;0;0;0;6;0;6971;23;7;3;259;469;24;7;0;4801;6;0;360;18;8;0;4839;6;0;364;17;9;0;2586;6;0;387;13
01.11.17;16:40:00;1;232;4680;0;2;0;4421;6;0;379;14;3;1;2749;6;2;461;17;4;0;3771;1;0;194;15;5;0;0;2;0;0;0;0;0;6;0;6971;23;2;6;508;243;24;7;0;4801;6;0;373;18;8;0;4839;6;0;379;17;9;0;2586;6;0;407;13
01.11.17;16:35:00;1;266;4661;0;2;0;4421;6;0;392;14;3;2;2749;6;7;445;17;4;0;3771;1;0;217;15;5;0;0;2;0;0;0;0;0;6;0;6971;23;9;1;264;569;25;7;0;4801;6;0;407;18;8;0;4839;6;0;412;18;9;0;2586;6;0;441;14
01.11.17;16:30:00;1;274;4639;0;2;0;4421;6;0;406;15;3;2;2749;6;4;496;17;4;0;3771;3;0;218;15;5;0;0;2;0;0;0;0;0;6;26;6971;1;15;21;524;497;26;7;0;4801;6;1;442;18;8;0;4839;6;1;446;18;9;0;2586;6;1;486;14
01.11.17;16:25:00;1;277;4616;0;2;9;4421;6;18;391;15;3;0;2748;6;6;504;17;4;0;3771;3;0;208;16;5;0;0;2;0;0;0;0;0;6;67;6968;4;34;42;447;415;26;7;2;4801;4;4;454;18;8;0;4839;4;5;458;18;9;4;2586;3;6;471;14
01.11.17;16:20:00;1;241;4593;0;2;42;4421;6;65;370;15;3;0;2748;6;0;547;17;4;8;3771;3;8;199;16;5;0;0;2;0;0;0;0;0;6;90;6962;4;41;44;447;414;26;7;12;4800;6;21;448;19;8;12;4839;6;21;449;18;9;2;2586;6;6;526;14
01.11.17;16:15:00;1;233;4572;0;2;74;4417;4;102;354;16;3;15;2748;3;26;498;18;4;24;3771;3;25;198;16;5;0;0;2;0;0;0;0;0;6;114;6954;4;45;50;447;415;26;7;54;4799;4;76;352;19;8;51;4838;4;77;357;18;9;5;2586;6;10;536;14
01.11.17;16:10:00;1;234;4552;0;2;67;4411;4;95;365;16;3;5;2747;6;11;532;18;4;22;3768;3;23;198;16;5;0;0;2;0;0;0;0;0;6;113;6945;4;48;55;447;414;26;7;48;4795;4;74;351;19;8;45;4833;4;80;389;18;9;7;2585;6;14;512;14
01.11.17;16:05:00;1;236;4533;0;2;95;4406;4;123;364;16;3;32;2746;6;54;495;18;4;46;3767;3;48;198;16;5;0;0;2;0;0;0;0;0;6;147;6935;4;75;78;447;415;26;7;83;4791;4;111;390;19;8;75;4830;4;107;439;18;9;7;2585;6;12;544;15
01.11.17;16:00:00;1;238;4513;0;2;154;4398;4;185;372;16;3;84;2744;4;122;485;19;4;107;3763;3;112;212;16;5;0;0;2;0;0;0;0;0;6;206;6923;4;100;99;447;415;26;7;150;4784;4;186;451;19;8;154;4823;4;188;441;18;9;72;2584;6;93;490;15
01.11.17;15:55:00;1;222;4494;0;2;158;4385;4;186;365;16;3;88;2737;4;126;497;19;4;108;3754;5;112;207;16;5;0;0;2;0;0;0;0;0;6;211;6905;4;103;104;447;414;26;7;142;4772;4;182;461;19;8;147;4811;4;186;459;18;9;83;2578;4;108;464;15
01.11.17;15:50:00;1;208;4474;0;2;144;4372;4;175;366;16;3;80;2730;4;118;479;19;4;96;3745;3;100;206;16;5;0;0;2;0;0;0;0;0;6;200;6888;4;99;100;447;415;26;7;139;4760;4;165;395;19;8;140;4799;4;170;420;19;9;70;2572;4;96;448;15
01.11.17;15:45:00;1;233;4457;0;2;185;4360;4;217;370;16;3;107;2723;4;147;499;19;4;134;3737;5;140;220;16;5;0;0;2;0;0;0;0;0;6;261;6871;4;132;143;447;444;26;7;179;4749;4;216;420;19;8;184;4787;4;221;424;19;9;97;2566;4;125;481;15
01.11.17;15:40:00;1;299;4437;0;2;231;4344;4;265;380;17;3;139;2714;4;178;496;19;4;182;3726;5;189;225;16;5;0;0;2;0;0;0;0;0;6;341;6848;4;158;191;447;548;26;7;220;4733;4;259;430;19;8;225;4771;4;256;444;19;9;117;2558;4;147;508;15
01.11.17;15:35:00;1;302;4412;0;2;233;4325;4;268;376;17;3;142;2702;4;180;488;19;4;181;3711;5;189;225;16;5;0;0;2;0;0;0;0;0;6;350;6819;4;159;195;447;555;26;7;226;4715;4;255;453;19;8;226;4753;4;254;461;19;9;117;2548;4;147;512;15
01.11.17;15:30:00;1;306;4387;0;2;239;4306;4;273;382;17;3;143;2690;4;184;488;19;4;185;3696;5;192;227;16;5;0;0;2;0;0;0;0;0;6;384;6790;4;188;206;560;547;26;7;231;4696;4;261;445;19;8;226;4734;4;265;463;19;9;121;2538;4;152;496;16
01.11.17;15:25:00;1;304;4361;0;2;302;4286;4;338;391;17;3;183;2679;4;224;501;19;4;241;3680;5;251;224;16;5;0;0;2;0;0;0;0;0;6;464;6758;4;224;233;580;555;26;7;304;4677;4;335;451;19;8;300;4715;4;336;455;19;9;160;2528;4;189;499;16
01.11.17;15:20:00;1;309;4336;0;2;326;4261;4;365;390;17;3;200;2663;4;240;499;19;4;263;3660;5;274;231;16;5;0;0;2;0;0;0;0;0;6;501;6718;4;251;261;572;554;26;7;319;4652;4;359;479;19;8;317;4690;4;359;476;19;9;178;2515;4;208;511;16
01.11.17;15:15:00;1;250;4310;0;2;284;4233;4;317;382;17;3;171;2647;4;211;499;19;4;223;3638;5;232;228;16;5;0;0;2;0;0;0;0;0;6;436;6677;4;217;228;558;557;26;7;280;4625;4;321;459;19;8;286;4664;4;323;441;19;9;153;2500;4;183;508;16
01.11.17;15:10:00;1;238;4289;0;2;297;4210;4;334;387;17;3;182;2632;4;222;491;19;4;240;3619;5;250;228;16;5;0;0;2;0;0;0;0;0;6;467;6640;4;246;261;557;547;26;7;297;4601;4;338;477;19;8;311;4640;4;344;449;19;9;167;2487;4;197;495;16
01.11.17;15:05:00;1;239;4269;0;2;303;4185;4;340;388;17;3;185;2617;4;224;493;19;4;246;3599;5;256;227;16;5;0;0;2;0;0;0;0;0;6;481;6601;4;243;260;556;553;26;7;304;4577;4;350;475;19;8;325;4614;4;355;455;19;9;171;2473;4;201;505;16
01.11.17;15:00:00;1;240;4249;0;2;289;4160;4;325;383;17;3;170;2602;4;213;516;19;4;235;3579;5;244;228;16;5;0;0;2;0;0;0;0;0;6;460;6561;4;202;209;558;550;26;7;293;4551;4;344;470;19;8;313;4587;4;346;452;19;9;167;2459;4;197;500;16
01.11.17;14:55:00;1;238;4229;0;2;302;4136;4;338;392;17;3;182;2587;4;224;500;19;4;248;3559;5;258;226;17;5;0;0;2;0;0;0;0;0;6;486;6523;4;238;248;572;548;26;7;337;4527;4;363;455;19;8;327;4561;4;367;464;19;9;176;2445;4;207;509;16
01.11.17;14:50:00;1;233;4209;0;2;368;4110;4;406;389;17;3;225;2572;4;268;509;19;4;314;3539;5;327;232;17;5;0;0;2;0;0;0;0;0;6;608;6481;4;339;347;565;556;26;7;386;4499;4;435;480;19;8;400;4533;4;444;448;19;9;216;2430;4;249;515;16
01.11.17;14:45:00;1;234;4189;0;2;411;4080;4;452;395;17;3;253;2554;4;298;512;20;4;350;3512;5;364;233;17;5;0;0;2;0;0;0;0;0;6;668;6431;4;322;337;581;558;26;7;443;4466;4;483;462;19;8;447;4500;4;489;466;19;9;240;2412;4;274;513;16
01.11.17;14:40:00;1;235;4170;0;2;447;4045;4;486;393;18;3;277;2532;4;323;507;20;4;382;3483;5;398;234;17;5;0;0;2;0;0;0;0;0;6;725;6374;4;377;387;575;555;26;7;482;4429;4;517;461;19;8;483;4463;4;527;463;19;9;258;2392;4;296;520;16
01.11.17;14:35:00;1;198;4150;0;2;404;4008;4;445;394;18;3;253;2509;4;292;500;20;4;342;3451;5;356;235;17;5;0;0;2;0;0;0;0;0;6;658;6314;4;313;332;570;554;26;7;421;4389;4;463;455;19;8;437;4423;4;468;461;19;9;228;2371;4;263;501;16
01.11.17;14:30:00;1;191;4134;0;2;528;3974;4;571;397;18;3;327;2488;4;375;505;20;4;451;3423;5;470;236;17;5;0;0;2;0;0;0;0;0;6;832;6258;4;417;421;578;562;26;7;545;4354;4;588;465;19;8;547;4386;4;590;471;19;9;292;2351;4;331;517;17
01.11.17;14:25:00;1;191;4118;0;2;543;3931;4;585;396;18;3;336;2461;4;383;504;20;4;462;3386;5;481;239;17;5;0;0;2;0;0;0;0;0;6;848;6188;4;409;417;578;560;26;7;554;4309;4;595;475;19;8;565;4341;4;606;479;19;9;298;2327;4;337;515;17
01.11.17;14:20:00;1;191;4102;0;2;536;3885;4;578;395;18;3;332;2433;4;379;501;20;4;464;3347;5;483;237;17;5;0;0;2;0;0;0;0;0;6;867;6118;4;438;435;584;563;26;7;556;4263;4;595;477;19;8;554;4294;4;601;466;19;9;299;2302;4;336;519;17
01.11.17;14:15:00;1;191;4086;0;2;535;3841;4;578;390;18;3;333;2405;4;381;507;20;4;467;3308;5;486;236;17;5;0;0;2;0;0;0;0;0;6;886;6045;4;471;473;587;565;26;7;529;4217;4;575;473;19;8;536;4247;4;584;468;19;9;289;2278;4;327;513;16
01.11.17;14:10:00;1;191;4070;0;2;491;3796;4;536;398;18;3;308;2378;4;354;501;20;4;425;3270;5;443;238;17;5;0;0;2;0;0;0;0;0;6;811;5972;4;401;412;580;558;26;7;489;4173;4;535;467;19;8;504;4203;4;546;459;19;9;271;2253;4;305;516;16
01.11.17;14:05:00;1;213;4054;0;2;429;3755;4;470;392;18;3;266;2352;4;313;507;20;4;365;3234;5;381;234;17;5;0;0;2;0;0;0;0;0;6;697;5904;4;351;362;578;560;26;7;422;4132;4;466;474;19;8;436;4161;4;478;467;19;9;236;2231;4;270;509;16
01.11.17;14:00:00;1;271;4036;0;2;298;3720;4;332;386;18;3;183;2330;4;222;501;20;4;237;3204;5;247;230;17;5;0;0;2;0;0;0;0;0;6;470;5848;4;223;233;567;547;26;7;287;4097;4;325;477;19;8;296;4125;4;331;467;19;9;160;2211;4;190;507;16
01.11.17;13:55:00;1;300;4013;0;2;335;3695;4;375;392;18;3;205;2314;4;246;488;20;4;275;3184;5;287;230;17;5;0;0;2;0;0;0;0;0;6;526;5809;4;246;257;573;554;26;7;352;4073;4;380;453;19;8;341;4100;4;384;453;19;9;183;2198;4;214;500;17
01.11.17;13:50:00;1;302;3988;0;2;418;3667;4;460;396;18;3;259;2297;4;303;507;20;4;345;3161;5;360;233;17;5;0;0;2;0;0;0;0;0;6;649;5764;4;320;328;576;554;26;7;428;4043;4;469;451;19;8;433;4071;4;468;476;19;9;229;2182;4;264;505;17
01.11.17;13:45:00;1;291;3962;0;2;453;3632;4;495;385;18;3;282;2276;4;329;509;20;4;381;3132;5;397;234;17;5;0;0;2;0;0;0;0;0;6;712;5709;4;353;360;580;555;26;7;460;4008;4;495;451;20;8;458;4035;4;506;468;19;9;245;2163;4;283;512;17
01.11.17;13:40:00;1;259;3938;0;2;454;3594;4;498;394;18;3;281;2252;4;328;505;20;4;384;3100;5;399;235;17;5;0;0;2;0;0;0;0;0;6;720;5650;4;373;370;576;552;26;7;465;3970;4;508;453;20;8;473;3997;4;513;463;19;9;252;2143;4;287;515;17
01.11.17;13:35:00;1;233;3916;0;2;448;3556;4;491;393;19;3;276;2229;4;323;504;20;4;378;3068;5;394;230;17;5;0;0;2;0;0;0;0;0;6;719;5590;4;369;374;578;555;26;7;475;3931;4;515;458;20;8;479;3957;4;519;468;19;9;255;2122;4;291;507;17